Location: Abraham Lincoln Continuation High School
(33.9711°N, 117.3662°W)
Time: 14:09:47
(UTC+00:00)

NOSS 3-2 (C) - Pass Details

Date: 21 September 2020
Orbit: 795 x 1418 km, 63.4° (Epoch: 25 October)

Event Time Altitude Azimuth Distance (km) Brightness Sun altitude
Rises 04:06:31 0° 332° (NNW) 4,066 7.4 -28.8°
Reaches altitude 10° 04:09:11 10° 336° (NNW) 3,182 6.7 -29.3°
Maximum altitude 04:16:58 64° 57° (ENE) 1,457 4.1 -30.8°
Enters shadow 04:17:17 64° 69° (ENE) 1,466 4.1 -30.9°
